Regional Weather Roundup
Issued by NWS New Orleans/Baton Rouge, LA

Home | Current Version | Previous Version | Graphics & Text | Print | Product List | Glossary On
Versions: 1 2 3 4 5 6 7 8 9 10 11 12 13 14 15 16 17 18 19 20 21 22 23 24 25 26 27 28 29 30 31 32 33 34 35 36 37 38 39 40 41 42 43 44 45 46 47 48 49 50
516
ASUS44 KLIX 271201
RWRLIX
NEW ORLEANS REGIONAL WEATHER ROUNDUP
NATIONAL WEATHER SERVICE NEW ORLEANS LA
600 AM CST TUE JAN 27 2015

NOTE: "FAIR" INDICATES FEW OR NO CLOUDS BELOW 12,000 FEET WITH NO
      SIGNIFICANT WEATHER AND/OR OBSTRUCTIONS TO VISIBILITY.
      SKY/WX - SKY CONDITION AND SIGNIFICANT WEATHER.
      TMP - AIR TEMPERATURE.     DP    - DEWPOINT TEMPERATURE.
      RH  - RELATIVE HUMIDITY.   PRES  - PRESSURE.
      HI  - HEAT INDEX.          WCI   - WIND CHILL INDEX.

*  THESE STATIONS ARE NOT NWS OR FAA STATIONS AND ARE NOT UNDER
   NWS QUALITY CONTROL.

LAZ038-040-048-061>063-065>067-069-271300-
SOUTHEAST LOUISIANA

CITY           SKY/WX    TMP DP  RH WIND       PRES   REMARKS
N.O. AUDUBON   NOT AVBL
N.O. INTL ARPT PTCLDY    47  40  76 CALM      30.07R
6HR MIN TEMP:  46; 6HR MAX TEMP:  49;

N.O. LAKEFRONT CLEAR     53  44  71 W12       30.08R
6HR MIN TEMP:  51; 6HR MAX TEMP:  54;

N.O. DOWNTOWN*   N/A     48  39  71 S3        30.08R
6HR MIN TEMP:  48; 6HR MAX TEMP:  52;

SLIDELL        CLEAR     50  40  68 CALM      30.06R
6HR MIN TEMP:  42; 6HR MAX TEMP:  52;

BATON ROUGE    CLEAR     40  37  89 CALM      30.07R
6HR MIN TEMP:  40; 6HR MAX TEMP:  46;

BOOTHVILLE     CLEAR     51  48  89 W7        30.09R
6HR MIN TEMP:  48; 6HR MAX TEMP:  52;

BELLE CHASSE   CLEAR     49  41  74 W5        30.07R
6HR MIN TEMP:  46; 6HR MAX TEMP:  50;

BOGALUSA*        N/A     38  34  85 CALM      30.07R
6HR MIN TEMP:  36; 6HR MAX TEMP:  40;

GALLIANO*      NOT AVBL
NEW ROADS*     NOT AVBL
GONZALES*      NOT AVBL
HAMMOND*       NOT AVBL
HOUMA*         CLEAR     46  45  93 SW3       30.08S
PORT FOURCHON* SUNNY     54  48  82 W7        30.12S

$$

MSZ070-080>082-271300-
SOUTHERN MISSISSIPPI

CITY           SKY/WX    TMP DP  RH WIND       PRES   REMARKS
MCCOMB         CLEAR     43  34  70 NW3       30.05R
6HR MIN TEMP:  43; 6HR MAX TEMP:  46;

GULFPORT       CLEAR     44  38  79 NW7       30.05R
6HR MIN TEMP:  39; 6HR MAX TEMP:  45;

BILOXI         CLEAR     45  40  81 NW8       30.04R
6HR MIN TEMP:  44; 6HR MAX TEMP:  48;

PASCAGOULA     CLEAR     44  38  79 W3        30.04R
6HR MIN TEMP:  37; 6HR MAX TEMP:  44;


$$

COASTAL OBSERVATIONS
LAKE AND NEARSHORE STATIONS

STATION/POSITION TIME  TEMP    WIND        PRES    WAVE
                       AIR SEA DIR/SP/G            HT/PER
                 (UTC) (F)     (DEG/KT/KT) (MB)    (FT/S)
PASCAGOULA       1118   53     260/ 11/ 16 1016.4
WAVELAND YACHT   1118   48     290/  7/  9 1016.3
GRAND ISLE       1118   55 56  280/ 13/ 16 1018.6
SOUTHWEST PASS   1118   58 45  300/ 12/ 18 1018.8
NEW CANAL        1118   53 51  260/  9/ 12 1018.0
SHELL BEACH      1118   48 53  240/  6/  8 1017.6

OFFSHORE STATIONS

STATION/POSITION TIME  TEMP    WIND        PRES    WAVE
                       AIR SEA DIR/SP/G            HT/PER
                 (UTC) (F)     (DEG/KT/KT) (MB)    (FT/S)
64 S DAUPHIN ISL 1055   62 70  290/ 19/ 25 1018.1    5/ 7

$$




USA.gov is the U.S. government's official web portal to all federal, state and local government web resources and services.